Flag for U.S.A. Weather past 2 weeks in Alexandria, Virginia, U.S.A.

Now
74 °F

Passing clouds.


Feels Like: 77 °F
Forecast: 62 / 77 °F
Wind: 13 mph from Northwest

Location: Reagan National Airport

Current Time: Jul 28, 2014 at 11:36:52 PM

Latest Report: Jul 28, 2014 at 10:52 PM


Visibility: 10 mi

Pressure: 29.83 "Hg

Humidity: 57%

Dew point: 58 °F

Location of AlexandriaLocation

Historic Weather in Alexandria — Graph

°F

Alexandria temperature yesterday

Maximum temperature yesterday: 86 °F (at 2:52 PM)
Minimum temperature yesterday: 73 °F (at 6:52 AM)
Average temperature yesterday: 80 °F

Past Weeks' High & Low Weather Summary

 TemperatureHumidityPressure
High93 °F (Jul 23, 2:52 PM)85% (Jul 15, 4:52 AM)30.24 "Hg (Jul 15, 4:52 AM)
Low65 °F (Jul 25, 5:52 AM)31% (Jul 18, 1:52 PM)29.59 "Hg (Jul 28, 4:52 AM)
Average79 °F61%29.97 "Hg
* Reported Jul 13 9:56 PM — Jul 28 9:52 PM, Alexandria, Weather by CustomWeather, © 2014

Note: Actual official high and low records may vary slightly from our data, if they occured in-between our weather recording intervals... More about our weather records

Advertising

Alexandria weather history for previous 24 hours

 ConditionsComfort  
Time TempWeatherWind HumidityBarometerVisibility
9:52 PM
Jul 28
75 °FPassing clouds.12 mph55%29.82 "Hg10 mi
8:52 PM77 °FScattered clouds.21 mph50%29.78 "Hg10 mi
7:52 PM79 °FPartly sunny.12 mph45%29.75 "Hg10 mi
6:52 PM82 °FScattered clouds.22 mph41%29.73 "Hg10 mi
5:52 PM83 °FBroken clouds.22 mph38%29.71 "Hg10 mi
4:52 PM85 °FScattered clouds.20 mph39%29.69 "Hg10 mi
3:52 PM86 °FScattered clouds.13 mph36%29.68 "Hg10 mi
2:58 PM84 °FBroken clouds.22 mph37%29.69 "Hg10 mi
1:52 PM84 °FBroken clouds.16 mph40%29.67 "Hg10 mi
12:52 PM86 °FScattered clouds.20 mph37%29.68 "Hg10 mi
11:52 AM84 °FPartly sunny.20 mph40%29.68 "Hg10 mi
10:52 AM83 °FScattered clouds.18 mph44%29.66 "Hg10 mi
9:52 AM83 °FBroken clouds.22 mph46%29.65 "Hg10 mi
8:52 AM82 °FScattered clouds.10 mph56%29.63 "Hg10 mi
7:52 AM79 °FPassing clouds.9 mph74%29.62 "Hg10 mi
6:52 AM75 °FPassing clouds.5 mph85%29.61 "Hg10 mi
5:52 AM73 °FPassing clouds.6 mph84%29.59 "Hg10 mi
4:52 AM74 °FPassing clouds.3 mph79%29.59 "Hg10 mi
3:52 AM77 °FPassing clouds.6 mph74%29.60 "Hg10 mi
2:52 AM78 °FOvercast.6 mph79%29.60 "Hg10 mi
1:52 AM79 °FPartly cloudy.5 mph79%29.61 "Hg10 mi
12:52 AM81 °FLight rain. Mostly cloudy.9 mph74%29.61 "Hg8 mi
12:03 AM81 °FThunderstorms. Passing clouds.7 mph74%29.64 "Hg10 mi
11:52 PM
Jul 27
81 °FLight rain. Mostly cloudy.8 mph74%29.64 "Hg7 mi
Weather by CustomWeather, © 2014

See weather overviewHow to use our weather pages